Location: Fazenda Monte Alegre
(4.8500°S, 38.0333°W)
Time: 16:01:43
(UTC+00:00)

Okean-O - Pass Details

Date: 24 September 2020
Orbit: 639 x 641 km, 98.2° (Epoch: 25 October)

Event Time Altitude Azimuth Distance (km) Brightness Sun altitude
Rises 21:50:55 0° 179° (S) 2,947 6.1 -21.6°
Reaches altitude 10° 21:53:12 10° 185° (S) 2,035 5.3 -22.2°
Maximum altitude 21:57:25 45° 257° (WSW) 879 3.7 -23.2°
Drops below altitude 10° 22:01:38 10° 330° (NNW) 2,023 5.5 -24.3°
Sets 22:03:54 0° 336° (NNW) 2,928 6.3 -24.8°
